• Join FlightAware (Why Join?)
  • Login
  • US Flag 
03:36PM EST


 

Airport Tracker/Info


-or-


 

Live Flight TrackerFlight Track Log ✈ EJA122 ✈ 07-Nov-2013 ✈ KPWA - KICT

Flight Track Log - Related Links

Times and Time Zones

All times are in EST time to prevent confusion due to time zone crossing. See the EJA122 flight status page for this flight to view local times or setup timezone preferences in your user account.

Time Position Orientation Groundspeed Altitude Reporting Facility
EST Latitude Longitude Course Direction KTS MPH feet Rate Location/Type
12:06PM 35.5206 -97.6483 211° Southwest 191 220 1,800  Level Fort Worth Center
12:07PM 35.4789 -97.6786 211° Southwest 200 230 3,900 2,586 Climbing Fort Worth Center
12:08PM 35.5142 -97.7194 317° Northwest 224 258 6,800 2,550 Climbing Fort Worth Center
12:10PM 35.6789 -97.6639 15° North 285 328 12,400 2,328 Climbing Kansas City Center
12:11PM 35.7544 -97.6272 21° North 289 333 14,600 1,258 Climbing Kansas City Center
12:12PM 35.8411 -97.5883 20° North 317 365 15,000 194 Climbing Kansas City Center
12:13PM 35.9364 -97.5436 21° North 356 410 15,000  Level Kansas City Center
12:14PM 36.0303 -97.4994 21° North 360 414 15,000  Level Kansas City Center
12:15PM 36.1244 -97.4550 21° North 362 417 15,000  Level Kansas City Center
12:16PM 36.2178 -97.4122 20° North 359 413 15,000  Level Kansas City Center
12:17PM 36.3314 -97.3592 21° North 362 417 15,000  Level Kansas City Center
12:18PM 36.4247 -97.3139 21° North 361 415 15,000  Level Kansas City Center
12:19PM 36.5203 -97.2678 21° North 364 419 15,000  Level Kansas City Center
12:20PM 36.6169 -97.2369 14° North 361 415 15,000  Level Kansas City Center
12:21PM 36.7142 -97.2147 10° North 357 411 15,000  Level Kansas City Center
12:22PM 36.8114 -97.1894 12° North 356 410 15,000 -726 Level Kansas City Center
12:23PM 36.9097 -97.1669 10° North 351 404 13,500 -1,613 Descending Kansas City Center
12:24PM 36.9719 -97.1503 12° North 343 395 12,500 -1,742 Descending Kansas City Center
12:24PM 37.0219 -97.1375 12° North 344 396 11,700 -1,612 Descending Kansas City Center
12:25PM 37.0786 -97.1256 10° North 335 386 10,700 -1,452 Descending Kansas City Center
12:25PM 37.1119 -97.1169 12° North 334 384 10,200 -700 Descending Kansas City Center
12:26PM 37.1647 -97.1042 11° North 319 367 10,000 -194 Descending Kansas City Center
12:26PM 37.1972 -97.0956 12° North 322 371 10,000  Level Kansas City Center
12:27PM 37.2419 -97.1183 338° Northwest 283 326 10,000 -194 Level Kansas City Center
12:27PM 37.2675 -97.1272 345° North 271 312 9,800 -885 Descending Kansas City Center
12:28PM 37.3089 -97.1367 350° North 237 273 9,100 -1,161 Descending Kansas City Center
12:29PM 37.3350 -97.1408 353° North 250 288 8,600 -1,100 Descending Kansas City Center
12:29PM 37.3778 -97.1522 348° North 243 280 8,000 -581 Descending Kansas City Center
12:30PM 37.4019 -97.1608 344° North 247 284 8,000  Level Kansas City Center
12:30PM 37.4431 -97.1736 346° North 245 282 8,000  Level Kansas City Center
12:31PM 37.4806 -97.1875 344° North 245 282 8,000 -295 Level Kansas City Center
12:31PM 37.5147 -97.1967 348° North 247 284 7,700 -1,065 Descending Kansas City Center
12:32PM 37.5475 -97.2058 347° North 247 284 6,900 -1,375 Descending Kansas City Center
12:32PM 37.5667 -97.2122 345° North 250 288 6,600 -1,429 Descending Kansas City Center
12:33PM 37.6167 -97.2261 348° North 251 289 5,400 -1,475 Descending Kansas City Center
12:33PM 37.6336 -97.2306 348° North 250 288 5,100 -1,355 Descending Kansas City Center
12:34PM 37.6836 -97.2436 348° North 250 288 4,000 -1,000 Descending Kansas City Center
12:34PM 37.7000 -97.2625 318° Northwest 217 250 4,000 -581 Level Kansas City Center
12:35PM 37.7078 -97.3011 284° West 215 247 3,400 -984 Descending Kansas City Center
12:35PM 37.7128 -97.3294 283° West 182 209 3,000 -677 Descending Kansas City Center
12:36PM 37.7175 -97.3642 280° West 196 226 2,700 -492 Descending Kansas City Center
12:36PM 37.7158 -97.3817 263° West 138 159 2,500 -677 Descending Kansas City Center
12:37PM 37.6908 -97.4044 216° Southwest 163 188 2,000 -636 Descending Kansas City Center
12:37PM 37.6786 -97.4086 195° South 128 147 1,800 -387 Descending Kansas City Center
12:38PM 37.6597 -97.4167 199° South 149 171 1,600 -273 Descending Kansas City Center
12:40PM 37.6499 -97.4331 233° Southwest  Level Estimated
12:47PM 37.6499 -97.4331 38° Northeast  Level Estimated
12:48PM 37.6499 -97.4331 38° Northeast  Level Estimated
12:49PM 37.6499 -97.4331 38° Northeast  Level Estimated
12:50PM 37.6499 -97.4331 38° Northeast  Level Estimated
12:51PM 37.6499 -97.4331 38° Northeast  Level Estimated